Location: Arthurs Seat
(13.1500°N, 59.6000°W)
Time: 23:00:26
(UTC+00:00)

Daily predictions for brighter satellites

Satellite Brightness Start Highest point End
(mag) Time Altitude Azimuth Time Altitude Azimuth Time Altitude Azimuth
Cosmos 1833 Rocket 4.0 22:34:46 10° SE 22:38:17 17° ESE 22:41:47 10° ENE
CZ-4 R/B 1.5 22:38:20 10° S 22:42:19 76° W 22:46:13 10° NNW
CSL-04 Debris 4.2 22:37:33 10° SSE 22:42:58 73° ENE 22:48:20 10° N
Cosmos 220 Rocket 3.9 22:40:34 10° N 22:44:43 61° ENE 22:48:51 10° SSE
Cosmos 1898 Rocket 4.3 22:40:41 10° SSE 22:45:09 28° E 22:49:34 10° NE
Cosmos 2266 Rocket 4.1 22:39:21 10° N 22:45:12 53° E 22:51:05 10° SSE
Falcon 9 debris 3.3 22:41:53 10° NNW 22:45:16 56° NE 22:48:38 10° SE
Cosmos 2082 Rocket 3.7 22:45:04 10° SE 22:47:29 13° ESE 22:49:54 10° ENE
FALCON 9 R/B 1.2 22:44:09 10° WSW 22:47:41 39° NNW 22:49:27 10° NE
Yuri Rocket 3.3 22:42:32 10° WNW 22:47:43 70° SSW 22:51:47 11° SE
Ariane Rocket 3.6 22:44:28 10° SE 22:49:02 35° ENE 22:53:35 10° N
Sakura Rocket 3.2 22:45:29 10° WNW 22:50:42 72° SSW 22:54:20 12° SE
Okean 1-7 3.6 22:48:47 10° NNE 22:52:48 36° E 22:56:46 10° SSE
Cosmos 2369 Rocket 3.2 22:47:40 10° NNW 22:53:04 50° WSW 22:58:26 10° S
Unknown 3.3 22:49:45 10° NNW 22:53:12 55° NE 22:56:10 13° SE
Meteor 1-27 Rocket 4.2 22:49:06 10° NNW 22:54:44 67° W 23:00:16 10° S
CZ-2D R/B 3.7 22:51:26 10° SSE 22:55:05 41° ENE 22:58:42 10° N
Cosmos 783 Rocket 4.5 22:51:16 10° N 22:56:30 74° ENE 23:01:46 10° SSE
FALCON 9 DEB 3.0 22:55:26 10° NW 22:58:52 84° NE 23:01:47 14° SE
Cosmos 1315 Rocket 2.8 22:54:53 10° N 22:59:00 82° E 23:03:05 10° S
CENTAUR R/B 3.6 22:54:07 10° NNW 23:02:42 68° WSW 23:11:08 10° SSE
YAOGAN 6 3.7 23:00:48 10° S 23:04:09 45° W 23:07:30 10° NNW
CZ-2C R/B 3.6 23:00:28 10° NNE 23:05:01 82° E 23:09:30 10° S
Cosmos 1553 Rocket 4.0 23:10:57 10° SSE 23:16:58 55° E 23:23:04 10° NNE
Cosmos 990 Rocket 3.9 23:15:30 10° S 23:20:41 65° ESE 23:25:50 10° NNE
Cosmos 1602 4.4 23:17:00 10° SSW 23:20:45 56° W 23:24:29 10° N
Cosmos 44 3.7 23:18:28 10° N 23:22:20 32° ENE 23:22:51 31° E
Cosmos 1937 Rocket 3.5 23:20:35 10° S 23:25:42 55° ESE 23:30:52 10° NNE
SJ 16-02 1.5 23:22:04 10° S 23:26:17 48° E 23:30:31 10° NNE
Meteor 1-18 Rocket 4.3 23:23:20 10° N 23:28:56 55° E 23:33:01 19° SSE
Cosmos 1417 Rocket 4.3 23:23:13 10° S 23:29:22 73° E 23:35:27 10° N
FREGAT/IRIS 4.0 23:31:22 26° NNE 23:31:22 26° NNE 23:32:47 10° N
Cosmos 1656 Rocket 4.2 23:29:19 10° NNW 23:34:44 57° WSW 23:40:04 10° S
Unknown 3.4 23:32:46 10° NNW 23:36:31 58° NE 23:36:31 58° NE
Cosmos 2221 Rocket 3.5 23:35:38 10° N 23:40:00 64° E 23:40:36 57° SE
Okean 1 3.1 23:38:09 10° N 23:42:05 74° E 23:42:05 74° E
Meteor 2-19 Rocket 4.4 23:36:49 10° N 23:42:48 59° E 23:45:11 35° SSE
S3M 3.9 23:37:59 10° S 23:44:18 76° E 23:50:34 10° N
NATO 3D Rocket 4.3 23:38:58 10° SW 23:47:04 48° SSE 23:48:19 43° SE
Palapa B4 Rocket 4.1 23:44:24 10° WNW 23:49:00 52° NNE 23:50:49 39° ENE
Unknown 3.8 23:46:26 10° NNW 23:49:40 58° NNW 23:49:40 58° NNW
SJ-6B 4.3 23:52:33 28° NNE 23:52:33 28° NNE 23:54:34 10° N
